SCC50AB EGNX-EGPH

Flight info

Callsign SCC50AB
Flight time N/A
Altitude 18000
Route TNT N57 POL N601 INPIP
Aircraft AT76/M-SDFGIRY/S

Departure

Time 2026-05-05 16:36
Airport East Midlands Airport (EGNX)

Arrival

Time N/A
Airport Edinburgh Airport (EGPH)
Time Latitude Longitude Altitude Speed Heading
2026-05-05 16:15 52.82630 -1.34578 297 ft 0 kts 268°
2026-05-05 16:26 52.82629 -1.34529 301 ft 3 kts 281°
2026-05-05 16:26 52.82612 -1.34481 300 ft 2 kts 352°
2026-05-05 16:27 52.82604 -1.34480 301 ft 1 kts 358°
2026-05-05 16:27 52.82603 -1.34480 301 ft 0 kts 358°
2026-05-05 16:29 52.82612 -1.34480 301 ft 3 kts 358°
2026-05-05 16:29 52.82643 -1.34481 298 ft 5 kts 359°
2026-05-05 16:29 52.82683 -1.34484 297 ft 6 kts 358°
2026-05-05 16:29 52.82729 -1.34486 297 ft 7 kts 359°
2026-05-05 16:30 52.82778 -1.34487 297 ft 7 kts 359°
2026-05-05 16:30 52.82829 -1.34464 297 ft 9 kts 47°
2026-05-05 16:30 52.82879 -1.34415 302 ft 6 kts 14°
2026-05-05 16:30 52.82908 -1.34345 303 ft 12 kts 86°
2026-05-05 16:31 52.82906 -1.34171 299 ft 17 kts 90°
2026-05-05 16:31 52.82910 -1.33988 300 ft 15 kts 87°
2026-05-05 16:31 52.82912 -1.33825 301 ft 14 kts 88°
2026-05-05 16:31 52.82917 -1.33654 300 ft 16 kts 88°
2026-05-05 16:32 52.82919 -1.33476 301 ft 15 kts 87°
2026-05-05 16:32 52.82921 -1.33305 302 ft 16 kts 88°
2026-05-05 16:32 52.82925 -1.33115 298 ft 17 kts 86°
2026-05-05 16:32 52.82929 -1.32930 299 ft 16 kts 86°
2026-05-05 16:33 52.82932 -1.32750 301 ft 16 kts 88°
2026-05-05 16:33 52.82935 -1.32564 297 ft 16 kts 87°
2026-05-05 16:33 52.82935 -1.32381 298 ft 16 kts 94°
2026-05-05 16:33 52.82942 -1.32202 297 ft 16 kts 87°
2026-05-05 16:34 52.82947 -1.32021 301 ft 16 kts 85°
2026-05-05 16:34 52.82949 -1.31843 297 ft 16 kts 88°
2026-05-05 16:34 52.82951 -1.31663 297 ft 16 kts 88°
2026-05-05 16:34 52.82955 -1.31484 297 ft 16 kts 88°
2026-05-05 16:35 52.82970 -1.31350 301 ft 10 kts 44°
2026-05-05 16:35 52.83028 -1.31321 299 ft 11 kts
2026-05-05 16:35 52.83097 -1.31321 301 ft 7 kts 353°
2026-05-05 16:35 52.83128 -1.31389 305 ft 3 kts 265°
2026-05-05 16:36 52.83126 -1.31451 304 ft 32 kts 267°
2026-05-05 16:36 52.83108 -1.32311 306 ft 112 kts 272°
2026-05-05 16:36 52.83106 -1.33651 955 ft 124 kts 274°
2026-05-05 16:36 52.83101 -1.35092 1562 ft 134 kts 271°
2026-05-05 16:37 52.83053 -1.36851 1727 ft 170 kts 268°
2026-05-05 16:37 52.83018 -1.38833 2242 ft 172 kts 281°
2026-05-05 16:37 52.83578 -1.40548 2829 ft 172 kts 307°
2026-05-05 16:37 52.84246 -1.42184 3452 ft 173 kts 304°
2026-05-05 16:38 52.84901 -1.43879 4099 ft 175 kts 303°
2026-05-05 16:38 52.85533 -1.45615 4739 ft 177 kts 301°
2026-05-05 16:38 52.86154 -1.47387 5365 ft 178 kts 300°
2026-05-05 16:38 52.86759 -1.49175 5989 ft 180 kts 298°
2026-05-05 16:39 52.87362 -1.50994 6606 ft 181 kts 298°
2026-05-05 16:39 52.87960 -1.52827 7180 ft 182 kts 298°
2026-05-05 16:39 52.88554 -1.54663 7726 ft 184 kts 297°
2026-05-05 16:39 52.89166 -1.56558 8291 ft 184 kts 298°
2026-05-05 16:40 52.90060 -1.57995 8726 ft 188 kts 334°
2026-05-05 16:40 52.91301 -1.58760 9256 ft 191 kts 339°
2026-05-05 16:40 52.92570 -1.59451 9798 ft 193 kts 340°
2026-05-05 16:40 52.93850 -1.60155 10274 ft 194 kts 339°
2026-05-05 16:41 52.95135 -1.60879 10726 ft 196 kts 339°
2026-05-05 16:41 52.96433 -1.61618 11184 ft 198 kts 339°
2026-05-05 16:41 52.97733 -1.62379 11644 ft 199 kts 338°
2026-05-05 16:41 52.99046 -1.63163 12092 ft 201 kts 338°
2026-05-05 16:42 53.00363 -1.63961 12531 ft 202 kts 338°
2026-05-05 16:42 53.01691 -1.64769 12972 ft 204 kts 338°
2026-05-05 16:42 53.03026 -1.65581 13415 ft 205 kts 338°
2026-05-05 16:42 53.04375 -1.66396 13844 ft 207 kts 338°
2026-05-05 16:43 53.05732 -1.67217 14224 ft 209 kts 338°
2026-05-05 16:43 53.07100 -1.68052 14588 ft 210 kts 337°
2026-05-05 16:43 53.08473 -1.68900 14964 ft 211 kts 337°
2026-05-05 16:43 53.09854 -1.69757 15350 ft 213 kts 337°
2026-05-05 16:44 53.11247 -1.70624 15705 ft 214 kts 337°
2026-05-05 16:44 53.12648 -1.71494 16045 ft 216 kts 337°
2026-05-05 16:44 53.14058 -1.72370 16384 ft 217 kts 337°
2026-05-05 16:44 53.15476 -1.73247 16700 ft 218 kts 337°
2026-05-05 16:45 53.16902 -1.74132 17033 ft 219 kts 337°
2026-05-05 16:45 53.18335 -1.75023 17372 ft 221 kts 337°
2026-05-05 16:45 53.19778 -1.75920 17703 ft 222 kts 337°
2026-05-05 16:45 53.21242 -1.76830 17889 ft 228 kts 337°
2026-05-05 16:46 53.22762 -1.77775 17953 ft 238 kts 337°
2026-05-05 16:46 53.24339 -1.78759 17980 ft 246 kts 337°
2026-05-05 16:46 53.25961 -1.79770 17994 ft 252 kts 337°
2026-05-05 16:46 53.27616 -1.80801 18000 ft 256 kts 337°
2026-05-05 16:47 53.29298 -1.81852 18006 ft 260 kts 338°
2026-05-05 16:47 53.31000 -1.82917 18007 ft 262 kts 338°
2026-05-05 16:47 53.32718 -1.83992 18017 ft 264 kts 338°
2026-05-05 16:47 53.34441 -1.85070 18013 ft 265 kts 338°
2026-05-05 16:48 53.36175 -1.86156 18010 ft 266 kts 338°
2026-05-05 16:48 53.37906 -1.87244 18013 ft 266 kts 338°
2026-05-05 16:48 53.39646 -1.88335 18021 ft 267 kts 338°
2026-05-05 16:48 53.41382 -1.89426 18018 ft 267 kts 338°
2026-05-05 16:49 53.43121 -1.90521 18018 ft 267 kts 338°
2026-05-05 16:49 53.44863 -1.91617 18018 ft 267 kts 338°
2026-05-05 16:49 53.46608 -1.92715 18018 ft 268 kts 338°
2026-05-05 16:49 53.48355 -1.93817 18015 ft 268 kts 338°
2026-05-05 16:50 53.50101 -1.94918 18019 ft 268 kts 338°
2026-05-05 16:50 53.51848 -1.96021 18014 ft 268 kts 338°
2026-05-05 16:50 53.53569 -1.97110 18022 ft 268 kts 338°
2026-05-05 16:50 53.55309 -1.98210 18011 ft 267 kts 338°
2026-05-05 16:51 53.57051 -1.99311 18013 ft 267 kts 338°
2026-05-05 16:51 53.58787 -2.00412 18020 ft 267 kts 338°
2026-05-05 16:51 53.60523 -2.01514 18016 ft 267 kts 338°
2026-05-05 16:51 53.62259 -2.02617 18013 ft 266 kts 338°
2026-05-05 16:52 53.63991 -2.03715 18009 ft 266 kts 338°
2026-05-05 16:52 53.65721 -2.04812 18019 ft 266 kts 337°
2026-05-05 16:52 53.67452 -2.05913 18017 ft 266 kts 337°
2026-05-05 16:52 53.69184 -2.07016 18025 ft 266 kts 337°
2026-05-05 16:53 53.70914 -2.08121 18020 ft 266 kts 337°
2026-05-05 16:53 53.72641 -2.09228 18031 ft 265 kts 338°
2026-05-05 16:53 53.74366 -2.10329 18024 ft 265 kts 337°
2026-05-05 16:53 53.76082 -2.11454 18024 ft 264 kts 336°
2026-05-05 16:54 53.77792 -2.12604 18019 ft 264 kts 336°
2026-05-05 16:54 53.79493 -2.13770 18029 ft 264 kts 336°
2026-05-05 16:54 53.81197 -2.14940 18020 ft 264 kts 336°
2026-05-05 16:54 53.82897 -2.16110 18023 ft 264 kts 336°
2026-05-05 16:55 53.84597 -2.17286 18016 ft 264 kts 336°
2026-05-05 16:55 53.86296 -2.18464 18028 ft 263 kts 336°
2026-05-05 16:55 53.87991 -2.19635 18017 ft 263 kts 336°
2026-05-05 16:55 53.89685 -2.20801 18024 ft 263 kts 336°
2026-05-05 16:56 53.91378 -2.21960 18019 ft 263 kts 336°
2026-05-05 16:56 53.93074 -2.23116 18019 ft 263 kts 336°
2026-05-05 16:56 53.94772 -2.24275 18030 ft 262 kts 336°
2026-05-05 16:56 53.96463 -2.25433 18021 ft 262 kts 336°
2026-05-05 16:57 53.98150 -2.26597 18032 ft 262 kts 336°
2026-05-05 16:57 53.99839 -2.27764 18027 ft 262 kts 336°
2026-05-05 16:57 54.01526 -2.28923 18031 ft 261 kts 336°
2026-05-05 16:57 54.03211 -2.30084 18028 ft 261 kts 336°
2026-05-05 16:58 54.04894 -2.31244 18026 ft 261 kts 336°
2026-05-05 16:58 54.06575 -2.32401 18029 ft 261 kts 336°
2026-05-05 16:58 54.08237 -2.33548 18026 ft 261 kts 336°
2026-05-05 16:58 54.09919 -2.34706 18029 ft 261 kts 336°
2026-05-05 16:59 54.11598 -2.35866 18019 ft 261 kts 336°
2026-05-05 16:59 54.13275 -2.37030 18030 ft 260 kts 336°
2026-05-05 16:59 54.14955 -2.38194 18027 ft 260 kts 335°
2026-05-05 16:59 54.16631 -2.39361 18032 ft 260 kts 336°
2026-05-05 17:00 54.18307 -2.40533 18029 ft 260 kts 335°
2026-05-05 17:00 54.19982 -2.41703 18026 ft 260 kts 336°
2026-05-05 17:00 54.21659 -2.42875 18030 ft 260 kts 335°
2026-05-05 17:00 54.23338 -2.44048 18022 ft 260 kts 336°
2026-05-05 17:01 54.25013 -2.45219 18013 ft 260 kts 336°
2026-05-05 17:01 54.26687 -2.46386 18031 ft 260 kts 336°
2026-05-05 17:01 54.28361 -2.47550 18029 ft 260 kts 335°
2026-05-05 17:01 54.30038 -2.48716 18025 ft 260 kts 336°
2026-05-05 17:02 54.31714 -2.49879 18021 ft 260 kts 336°
2026-05-05 17:02 54.33384 -2.51048 18019 ft 260 kts 335°
2026-05-05 17:02 54.35052 -2.52219 18029 ft 259 kts 335°
2026-05-05 17:02 54.36720 -2.53386 18033 ft 259 kts 336°
2026-05-05 17:03 54.38392 -2.54558 18033 ft 260 kts 335°
2026-05-05 17:03 54.40066 -2.55732 18021 ft 260 kts 335°
2026-05-05 17:03 54.41737 -2.56911 18033 ft 259 kts 336°
2026-05-05 17:03 54.43404 -2.58087 18034 ft 259 kts 335°
2026-05-05 17:04 54.45072 -2.59259 18027 ft 259 kts 336°
2026-05-05 17:04 54.46739 -2.60432 18033 ft 259 kts 335°
2026-05-05 17:04 54.48408 -2.61607 18038 ft 259 kts 335°
2026-05-05 17:04 54.50069 -2.62778 18025 ft 258 kts 335°
2026-05-05 17:05 54.51732 -2.63954 18031 ft 258 kts 335°
2026-05-05 17:05 54.53394 -2.65131 18034 ft 258 kts 335°
2026-05-05 17:05 54.55055 -2.66309 18034 ft 258 kts 335°
2026-05-05 17:05 54.56714 -2.67487 18035 ft 258 kts 335°
2026-05-05 17:06 54.58373 -2.68666 18042 ft 258 kts 335°
2026-05-05 17:06 54.60036 -2.69845 18026 ft 258 kts 335°
2026-05-05 17:06 54.61675 -2.71009 18030 ft 258 kts 335°
2026-05-05 17:06 54.63335 -2.72187 18040 ft 258 kts 335°
2026-05-05 17:07 54.64996 -2.73369 18037 ft 258 kts 335°
2026-05-05 17:07 54.66652 -2.74550 18041 ft 258 kts 335°
2026-05-05 17:07 54.68308 -2.75733 18040 ft 258 kts 335°
2026-05-05 17:07 54.69965 -2.76922 18042 ft 258 kts 335°
2026-05-05 17:08 54.71624 -2.78107 18042 ft 258 kts 335°
2026-05-05 17:08 54.73283 -2.79290 18037 ft 258 kts 335°
2026-05-05 17:08 54.74940 -2.80473 18039 ft 257 kts 335°
2026-05-05 17:08 54.76592 -2.81655 18042 ft 257 kts 335°
2026-05-05 17:09 54.78242 -2.82840 18041 ft 257 kts 335°
2026-05-05 17:09 54.79895 -2.84025 18039 ft 257 kts 335°
2026-05-05 17:09 54.81547 -2.85214 18045 ft 257 kts 335°
2026-05-05 17:09 54.83196 -2.86403 18036 ft 257 kts 335°
2026-05-05 17:10 54.84842 -2.87585 18044 ft 257 kts 335°
2026-05-05 17:10 54.85938 -2.88373 18047 ft 257 kts 335°
2026-05-05 17:10 54.87583 -2.89562 18047 ft 257 kts 335°
2026-05-05 17:10 54.89234 -2.90754 18047 ft 257 kts 335°
2026-05-05 17:11 54.90880 -2.91943 18047 ft 257 kts 335°
2026-05-05 17:11 54.92532 -2.93135 18045 ft 257 kts 335°
2026-05-05 17:11 54.94180 -2.94328 18043 ft 257 kts 335°
2026-05-05 17:11 54.95830 -2.95523 18046 ft 257 kts 335°
2026-05-05 17:12 54.97478 -2.96717 18048 ft 257 kts 335°
2026-05-05 17:12 54.99127 -2.97911 18044 ft 257 kts 335°
2026-05-05 17:12 55.00773 -2.99107 18048 ft 257 kts 335°
2026-05-05 17:12 55.02416 -3.00302 18047 ft 256 kts 334°
2026-05-05 17:13 55.04065 -3.01502 18050 ft 256 kts 335°
2026-05-05 17:13 55.05713 -3.02699 18051 ft 256 kts 335°
2026-05-05 17:13 55.07360 -3.03898 18050 ft 256 kts 334°
2026-05-05 17:13 55.09004 -3.05097 18051 ft 256 kts 334°
2026-05-05 17:14 55.10646 -3.06298 18054 ft 256 kts 334°
2026-05-05 17:14 55.12289 -3.07497 18055 ft 256 kts 334°